Date,TemperatureHighF,TemperatureAvgF,TemperatureLowF,DewpointHighF,DewpointAvgF,DewpointLowF,HumidityHigh,HumidityAvg,HumidityLow,PressureMaxIn,PressureMinIn,WindSpeedMaxMPH,WindSpeedAvgMPH,GustSpeedMaxMPH,PrecipitationSumIn
2013-1-1,36,20,10,16,8,-1,87,60,40,0.00,40.00,9,-74,11,0.00
2013-1-2,39,24,15,13,4,-4,56,43,25,0.00,40.00,11,-210,11,0.00
2013-1-3,44,23,7,8,-7,-20,55,31,9,0.00,40.00,11,-567,12,0.00
2013-1-4,55,31,18,19,-1,-16,45,30,7,0.00,40.00,11,-595,11,0.04
2013-1-5,45,29,19,17,7,1,50,41,30,0.00,40.00,17,-464,17,0.00
2013-1-6,57,33,18,11,-1,-19,48,28,6,0.00,40.00,8,-327,8,0.00
2013-1-7,59,39,26,20,1,-14,65,26,6,0.00,40.00,10,-1,11,0.00
2013-1-8,53,42,30,19,13,4,47,32,16,0.00,40.00,28,5,28,0.00
2013-1-9,64,40,25,24,8,-12,53,35,5,0.00,40.00,12,-1,12,0.00
2013-1-10,46,34,24,22,14,7,51,43,28,0.00,40.00,15,2,15,0.00
2013-1-11,39,25,8,22,10,-14,91,58,10,0.00,40.00,22,1,22,0.00
2013-1-12,21,8,-1,9,0,-10,86,70,55,0.00,40.00,11,-22,11,0.00
2013-1-13,22,6,-4,7,-7,-16,59,54,46,0.00,40.00,9,-16,9,0.00
2013-1-14,26,7,-4,6,-8,-18,56,48,41,0.00,40.00,10,-303,10,0.00
2013-1-15,34,19,-3,11,-1,-19,56,42,31,0.00,40.00,9,-573,9,0.00
2013-1-16,60,38,24,24,15,6,54,41,12,0.00,40.00,11,-439,11,0.00
2013-1-17,56,34,20,25,13,-1,59,44,10,0.00,40.00,11,-236,11,0.00
2013-1-18,63,47,28,13,-8,-15,44,12,5,0.00,40.00,31,3,31,0.00
2013-1-19,65,45,29,8,-9,-17,34,11,4,0.00,40.00,20,4,20,0.00
2013-1-20,54,34,18,11,-1,-15,63,29,7,0.00,40.00,13,-40,15,0.00
2013-1-21,60,37,15,19,-2,-14,70,30,6,0.00,40.00,13,-43,13,0.00
2013-1-22,67,48,30,-8,-11,-16,12,8,4,0.00,40.00,26,-245,26,0.00
2013-1-23,65,51,35,12,-10,-14,37,8,4,0.00,40.00,20,-834,20,0.00
2013-1-24,68,47,28,23,-1,-15,40,17,4,0.00,40.00,9,-716,10,0.00
2013-1-25,61,42,31,33,22,16,65,47,31,0.00,40.00,3,-992,3,0.00
2013-1-26,59,42,30,32,25,18,77,53,35,0.00,40.00,3,-996,3,0.00
2013-1-27,66,44,31,37,26,-6,87,56,6,0.00,40.00,10,-926,13,0.00
2013-1-28,53,34,23,32,22,13,98,62,39,0.00,40.00,16,-887,16,0.00
2013-1-29,42,24,10,22,11,-14,97,60,15,0.00,40.00,13,-625,13,0.04
2013-1-30,47,27,6,18,6,-10,54,41,28,0.00,40.00,25,-484,25,0.00
2013-1-31,52,35,19,24,14,-11,86,48,7,0.00,40.00,28,-278,28,0.00
2013-2-1,53,35,21,24,12,-12,81,46,8,0.00,40.00,29,-744,30,0.00
2013-2-2,63,39,24,29,14,-11,74,43,5,0.00,40.00,11,-482,11,0.00
2013-2-3,54,37,26,22,3,-15,48,28,7,0.00,40.00,12,2,14,0.00
2013-2-4,61,42,26,16,-6,-18,36,15,5,0.00,40.00,21,1,21,0.00
2013-2-5,62,43,28,20,8,-12,41,26,5,0.00,40.00,15,-275,15,0.00
2013-2-6,53,41,32,32,22,13,90,50,31,0.00,40.00,8,-832,8,0.00
2013-2-7,53,34,21,30,13,-11,87,48,7,0.00,40.00,15,-585,15,0.00
2013-2-8,60,35,20,11,-4,-18,44,23,6,0.00,40.00,11,-561,11,0.00
2013-2-9,46,29,20,28,15,-7,95,60,24,0.00,40.00,11,-422,11,0.00
2013-2-10,37,27,16,21,11,5,93,53,31,0.00,40.00,22,-50,22,0.00
2013-2-11,36,20,12,19,12,7,89,70,48,0.00,40.00,10,-283,12,0.00
2013-2-12,51,27,9,18,-2,-20,80,40,8,0.00,40.00,12,-92,13,0.00
2013-2-13,53,34,18,19,0,-14,55,29,7,0.00,40.00,19,-27,20,0.00
2013-2-14,36,25,18,21,14,6,85,66,41,0.00,40.00,17,-18,17,0.00
2013-2-15,49,28,14,22,7,-15,80,52,8,0.00,40.00,30,-44,34,0.04
2013-2-16,66,45,19,19,0,-13,72,22,4,0.00,40.00,26,6,27,0.00
2013-2-17,68,46,30,15,-8,-16,39,11,4,0.00,40.00,30,6,30,0.00
2013-2-18,50,31,18,19,2,-20,74,36,8,0.00,40.00,23,-286,23,0.00
2013-2-19,50,28,15,19,6,-12,59,41,8,0.00,40.00,10,-728,10,0.00
2013-2-20,43,26,15,32,15,7,94,65,38,0.00,40.00,13,-723,13,0.00
2013-2-21,35,21,13,18,14,9,95,75,48,0.00,40.00,8,-743,8,0.10
2013-2-22,42,24,11,21,13,4,92,65,41,0.00,40.00,6,-936,6,0.19
2013-2-23,46,29,13,26,13,2,90,53,38,0.00,40.00,14,-572,14,0.08
2013-2-24,30,26,20,26,21,15,96,83,66,0.00,40.00,23,6,24,0.00
2013-2-25,49,25,8,21,13,3,86,62,31,0.00,40.00,11,2,11,0.04
2013-2-26,52,29,17,30,15,7,87,57,40,0.00,40.00,23,6,27,0.08
2013-2-27,47,27,12,20,6,-12,70,44,9,0.00,40.00,14,4,14,0.00
2013-2-28,49,31,14,19,3,-12,65,36,8,0.00,40.00,15,3,16,0.00
2013-3-1,46,35,23,23,16,-11,57,46,12,0.00,40.00,16,0,16,0.00
2013-3-2,64,45,30,32,23,16,57,44,25,0.00,40.00,10,2,11,0.00
2013-3-3,67,52,38,27,21,-12,51,32,4,0.00,40.00,29,6,30,0.00
2013-3-4,28,19,15,13,8,1,81,65,38,30.07,30.07,19,-78,19,0.00
2013-3-5,58,28,7,24,10,-12,79,56,6,30.71,30.01,11,2,11,0.09
2013-3-6,59,38,20,33,24,14,82,59,28,30.71,30.47,13,3,13,0.00
2013-3-7,69,47,32,36,26,12,69,46,12,30.62,30.47,12,4,13,0.00
2013-3-8,56,39,31,35,28,21,91,66,44,30.62,30.32,12,-2,13,0.00
2013-3-9,39,32,21,33,25,9,96,76,52,30.68,30.30,20,5,20,0.00
2013-3-10,60,35,13,25,15,3,68,46,12,30.68,30.59,13,3,20,0.12
2013-3-11,60,43,28,28,20,6,95,43,17,30.71,30.50,26,2,27,0.00
2013-3-12,37,29,23,27,23,18,94,79,57,30.83,30.71,12,4,13,0.04
2013-3-13,69,45,27,39,29,23,90,56,31,30.83,30.74,13,0,13,0.09
2013-3-14,77,57,41,33,19,-20,44,28,2,30.86,30.71,20,4,20,0.00
2013-3-15,82,62,48,26,2,-20,38,14,2,30.71,30.50,24,6,25,0.00
2013-3-16,63,46,36,36,28,22,72,50,32,30.65,30.47,13,3,15,0.00
2013-3-17,59,41,30,32,20,-15,70,46,6,30.47,30.24,32,5,32,0.00
2013-3-18,53,38,22,17,-5,-20,40,18,7,30.56,30.44,30,3,30,0.00
2013-3-19,62,43,22,14,-8,-15,57,14,5,30.89,30.50,22,6,26,0.00
2013-3-20,57,35,17,29,17,7,74,49,29,30.89,30.41,11,2,12,0.00
2013-3-21,58,43,26,36,14,-17,72,36,7,30.44,30.27,30,5,30,0.00
2013-3-22,49,30,21,28,17,3,95,61,35,30.53,30.38,17,5,19,0.00
2013-3-23,37,21,8,21,11,-3,90,67,45,30.71,30.50,23,5,23,0.00
2013-3-24,53,21,2,20,5,-9,87,53,13,30.74,30.62,11,2,11,0.00
2013-3-25,48,25,11,22,12,6,87,59,33,30.80,30.71,14,3,14,0.04
2013-3-26,55,34,16,29,16,3,69,50,34,30.74,30.53,13,3,13,0.00
2013-3-27,59,41,28,37,29,20,90,63,41,30.71,30.59,13,3,13,0.00
2013-3-28,68,47,31,37,30,26,89,57,28,30.74,30.62,17,-1,17,0.00
2013-3-29,69,51,38,36,29,24,69,46,25,30.74,30.65,17,3,17,0.00
2013-3-30,70,48,34,39,30,-10,95,55,5,30.80,30.62,24,1,26,0.00
2013-3-31,74,51,32,39,25,-20,97,49,2,30.80,30.56,13,4,16,0.00
2013-4-1,58,40,25,35,27,20,92,62,41,30.74,30.62,13,0,13,0.00
2013-4-2,40,36,34,36,34,31,98,90,72,30.74,30.62,11,4,13,0.20
2013-4-3,66,47,34,42,35,27,98,68,35,30.74,30.62,14,4,17,0.17
2013-4-4,75,54,36,40,31,19,75,44,14,30.77,30.62,16,4,17,0.00
2013-4-5,75,57,46,34,18,-20,57,31,2,30.62,30.38,35,5,35,0.00
2013-4-6,70,54,43,32,24,16,40,32,15,30.59,30.50,22,5,23,0.00
2013-4-7,70,52,37,35,27,12,79,42,12,30.53,30.35,24,4,24,0.00
2013-4-8,48,46,45,29,28,27,50,49,48,30.38,30.38,4,-165,15,0.00
2013-4-19,37,36,35,25,23,21,65,58,52,30.62,30.56,4,1,4,0.00
2013-4-20,62,45,31,36,28,22,77,54,35,30.65,30.50,17,2,17,0.00
2013-4-21,68,48,32,37,29,21,86,51,25,30.68,30.59,16,3,20,0.00
2013-4-22,51,32,21,39,25,18,96,76,50,30.86,30.53,19,5,23,0.00
2013-4-23,50,31,17,24,17,8,91,60,32,30.80,30.68,11,-4,11,0.00
2013-4-24,70,42,19,30,15,-14,74,40,4,30.77,30.68,13,2,13,0.00
2013-4-25,66,46,28,31,20,-9,56,39,5,30.77,30.56,11,-1,11,0.00
2013-4-26,74,56,39,24,6,-20,49,23,2,30.86,30.62,13,0,13,0.00
2013-4-27,82,61,39,21,-3,-20,44,15,2,30.83,30.65,15,4,15,0.00
2013-4-28,84,67,50,30,-10,-20,32,6,2,30.65,30.50,26,5,30,0.00
2013-4-29,85,66,46,41,6,-20,58,20,2,30.59,30.32,29,0,30,0.00
2013-4-30,61,49,33,42,32,0,98,57,9,30.65,30.32,20,-6,20,0.00
2013-5-1,49,33,26,33,27,18,98,79,47,31.00,30.62,15,5,15,0.30
2013-5-2,65,38,15,31,17,-10,88,50,7,31.15,30.92,6,2,6,0.12
2013-5-3,64,46,26,35,26,17,73,48,26,30.95,30.68,9,2,10,0.00
2013-5-4,65,48,33,36,28,19,71,48,35,30.83,30.68,13,-1,13,0.00
2013-5-5,64,47,32,35,26,17,69,45,29,30.83,30.68,13,0,13,0.00
2013-5-6,69,53,37,38,33,30,86,49,28,30.71,30.56,15,3,15,0.00
2013-5-7,74,55,41,47,37,28,78,53,32,30.68,30.53,17,3,17,0.04
2013-5-8,70,51,42,46,40,34,95,69,36,30.74,30.56,23,4,26,0.16
2013-5-9,62,50,41,45,41,37,94,74,49,30.80,30.68,22,3,22,0.33
2013-5-10,70,53,38,44,37,32,93,58,34,30.89,30.74,25,-4,25,0.00
2013-5-11,69,54,41,46,38,32,74,55,37,30.97,30.80,15,3,17,0.04
2013-5-12,83,66,46,44,37,31,71,36,20,30.86,30.74,14,0,15,0.00
2013-5-13,89,73,58,49,38,19,46,29,8,30.80,30.68,16,-3,20,0.00
2013-5-14,91,73,60,48,34,-12,43,27,2,30.71,30.59,15,4,17,0.00
2013-5-15,88,66,54,51,40,31,82,42,18,30.65,30.56,27,4,28,0.00
2013-5-16,83,65,51,52,42,31,80,47,17,30.62,30.50,26,4,26,0.00
2013-5-17,90,70,50,48,27,-16,67,32,2,30.59,30.44,15,0,15,0.00
2013-5-18,78,64,51,42,26,-12,51,28,4,30.59,30.44,20,5,20,0.00
2013-5-19,72,60,47,40,31,19,51,35,14,30.53,30.44,18,4,18,0.00
2013-5-20,70,55,46,46,38,27,85,53,35,30.65,30.50,24,3,25,0.00
2013-5-21,79,57,38,42,28,-20,86,45,2,30.68,30.50,15,3,15,0.00
2013-5-22,79,60,40,48,38,28,84,49,27,30.71,30.56,13,3,14,0.00
2013-5-23,73,56,46,51,46,42,98,72,44,30.74,30.62,19,-1,19,0.00
2013-5-24,88,65,44,55,46,17,98,58,9,30.65,30.56,12,3,12,0.00
2013-5-25,90,70,52,54,42,-12,88,46,2,30.68,30.56,12,3,12,0.00
2013-5-26,88,69,54,41,22,-18,50,25,2,30.62,30.53,25,3,25,0.00
2013-5-27,86,68,49,43,10,-20,47,20,2,30.56,30.44,20,4,20,0.00
2013-5-28,83,65,48,49,37,-17,64,38,2,30.50,30.30,37,3,37,0.00
2013-5-29,69,56,45,49,42,31,98,63,39,30.41,30.32,17,4,17,0.50
2013-5-30,72,59,49,38,21,-14,43,28,3,30.53,30.32,30,7,31,0.00
2013-5-31,71,61,50,32,3,-14,45,15,3,30.68,30.50,32,8,34,0.00
2013-6-1,76,60,46,44,34,26,51,38,29,30.86,30.62,20,4,23,0.00
2013-6-2,86,62,38,46,36,26,66,40,16,30.83,30.50,12,2,12,0.00
2013-6-3,92,72,52,45,8,-20,42,17,2,30.59,30.44,23,4,38,0.00
2013-6-4,75,61,50,50,41,22,75,50,24,30.83,30.59,29,4,29,0.00
2013-6-5,66,52,46,48,43,39,90,72,50,30.86,30.74,13,3,13,0.00
2013-6-6,85,64,42,53,42,34,95,52,21,30.80,30.68,11,-2,13,0.04
2013-6-7,88,66,49,50,42,35,68,43,25,30.77,30.50,11,-1,12,0.00
2013-6-8,83,67,53,50,41,34,56,40,30,30.71,30.44,21,4,26,0.00
2013-6-9,92,71,48,49,36,-10,74,36,2,30.71,30.62,13,3,17,0.00
2013-6-10,102,79,59,54,26,-11,42,22,2,30.65,30.56,24,4,24,0.00
2013-6-11,100,80,59,51,12,-20,37,15,2,30.68,30.50,25,4,25,0.00
2013-6-12,95,76,55,54,9,-15,65,15,2,30.80,30.65,21,5,23,0.00
2013-6-13,91,69,55,58,52,44,91,59,31,30.80,30.59,14,3,14,0.00
2013-6-14,96,75,59,52,30,-11,61,31,2,30.68,30.56,19,4,24,0.00
2013-6-15,87,70,52,54,48,41,73,47,30,30.74,30.62,20,4,20,0.00
2013-6-16,89,69,54,57,47,34,91,50,21,30.83,30.68,23,4,23,0.00
2013-6-17,87,68,51,54,46,34,70,46,25,30.80,30.68,18,4,20,0.04
2013-6-18,92,68,52,56,50,41,91,58,19,30.80,30.59,17,4,17,0.04
2013-6-19,100,74,51,55,27,-20,93,38,2,30.68,30.41,13,0,13,0.04
2013-6-20,93,74,53,47,9,-18,54,16,2,30.62,30.47,15,-7,15,0.00
2013-6-21,100,77,57,55,28,-15,57,28,2,30.62,30.50,13,4,17,0.00
2013-6-22,91,71,53,54,46,35,70,44,15,30.68,30.47,22,4,23,0.00
2013-6-23,91,68,50,52,45,37,82,47,26,30.71,30.50,16,4,16,0.00
2013-6-24,101,76,57,51,16,-20,59,23,2,30.62,30.47,17,0,19,0.00
2013-6-25,96,79,59,35,-3,-20,29,7,2,30.71,30.50,14,4,19,0.00
2013-6-26,103,80,58,47,20,-14,38,18,2,30.77,30.68,15,3,15,0.00
2013-6-27,102,80,67,45,27,-8,35,20,2,30.89,30.74,13,3,13,0.00
2013-6-28,99,76,59,65,51,40,87,45,27,30.89,30.80,28,4,28,0.25
2013-6-29,92,71,57,60,55,50,94,60,34,30.89,30.74,13,2,13,0.25
2013-6-30,86,69,61,59,54,50,77,60,39,30.86,30.80,13,3,13,0.00
2013-7-1,87,68,54,58,53,48,90,62,34,30.92,30.80,15,0,15,0.00
2013-7-2,90,70,52,56,50,43,91,54,28,30.92,30.77,17,2,21,0.00
2013-7-3,95,72,53,53,46,40,73,43,21,30.77,30.62,17,3,17,0.00
2013-7-4,99,78,60,53,44,36,49,33,14,30.68,30.62,13,3,19,0.00
2013-7-5,96,73,63,57,50,42,59,45,28,30.65,30.56,17,3,21,0.00
2013-7-6,101,78,62,56,50,44,77,39,16,30.68,30.56,25,4,25,0.04
2013-7-7,94,76,64,59,52,45,72,45,27,30.74,30.62,18,0,18,0.00
2013-7-8,98,77,60,60,51,37,83,45,18,30.77,30.68,26,0,28,0.00
2013-7-9,102,80,63,53,35,-11,41,25,2,30.86,30.74,18,3,18,0.00
2013-7-10,98,76,58,63,53,43,74,47,26,30.89,30.68,13,0,13,0.00
2013-7-11,105,81,58,59,50,-4,81,41,2,30.80,30.59,27,5,27,0.00
2013-7-12,95,75,67,62,52,42,81,47,28,30.74,30.62,17,3,21,0.04
2013-7-13,97,74,60,62,57,50,93,61,28,30.83,30.71,13,3,13,0.00
2013-7-14,89,71,58,64,58,52,93,66,35,30.86,30.74,13,4,15,0.00
2013-7-15,86,70,61,68,60,50,98,76,44,30.86,30.74,20,0,20,0.38
2013-7-16,90,70,52,56,50,44,96,54,28,30.86,30.74,15,3,15,0.00
2013-7-17,96,74,55,59,53,45,92,53,22,30.86,30.74,13,3,13,0.00
2013-7-18,99,73,61,60,54,46,87,56,26,30.86,30.74,21,4,26,0.29
2013-7-19,89,72,60,62,57,53,86,62,36,30.83,30.74,15,3,15,0.04
2013-7-20,92,71,57,67,56,49,94,62,32,30.77,30.65,26,-1,26,0.33
2013-7-21,91,71,55,62,55,46,95,59,34,30.68,30.59,17,3,17,0.00
2013-7-22,96,79,59,58,50,37,69,38,18,30.71,30.59,15,3,15,0.00
2013-7-23,96,78,63,57,44,-20,61,34,2,30.83,30.62,18,2,18,0.00
2013-7-24,92,72,61,62,54,44,77,57,33,30.86,30.68,26,1,26,0.00
2013-7-25,79,65,56,59,55,50,92,70,44,30.89,30.74,19,-2,19,0.04
2013-7-26,91,71,56,56,50,41,85,51,27,30.92,30.80,17,3,17,0.00
2013-7-27,84,65,54,60,53,46,96,66,40,30.83,30.71,15,3,15,0.04
2013-7-28,74,62,57,63,58,56,98,89,59,30.77,30.62,12,2,12,0.13
2013-7-29,79,64,56,63,55,45,98,76,35,30.83,30.62,12,2,12,0.08
2013-7-30,93,72,59,56,52,48,81,50,29,30.89,30.80,16,-1,16,0.68
2013-7-31,94,73,56,55,50,41,74,48,24,30.95,30.80,13,3,14,0.68
2013-8-1,92,74,56,59,51,45,82,48,24,30.86,30.65,15,3,16,0.00
2013-8-2,100,75,58,62,53,45,80,49,18,30.74,30.65,11,3,13,0.04
2013-8-3,95,71,60,64,57,50,92,65,31,30.89,30.71,30,4,30,0.04
2013-8-4,94,72,54,59,51,46,90,52,21,30.83,30.74,16,2,16,0.04
2013-8-5,92,72,60,53,48,41,63,43,27,30.77,30.68,13,3,14,0.00
2013-8-6,95,72,57,54,46,37,58,40,22,30.74,30.62,23,-1,23,0.00
2013-8-7,80,66,56,58,51,44,96,61,43,30.80,30.68,14,4,17,0.00
2013-8-8,82,65,54,59,55,49,98,73,45,30.83,30.68,21,3,21,0.00
2013-8-9,84,66,52,53,48,42,88,56,32,30.86,30.74,17,3,17,0.00
2013-8-10,91,71,51,53,45,40,83,44,20,30.86,30.74,13,4,17,0.00
2013-8-11,87,71,58,54,46,40,85,43,28,30.86,30.77,13,3,22,0.13
2013-8-12,86,66,52,58,52,44,97,64,31,30.89,30.77,19,3,19,0.25
2013-8-13,80,66,53,53,47,43,82,53,33,30.86,30.77,17,-4,17,0.05
2013-8-14,88,66,51,56,49,43,97,59,26,30.86,30.74,19,3,23,0.16
2013-8-15,91,69,52,54,47,40,74,47,28,30.86,30.74,9,2,12,0.00
2013-8-16,95,74,54,53,39,-9,62,37,2,30.86,30.77,11,-2,14,0.00
2013-8-17,97,76,58,54,34,-14,59,31,2,30.83,30.68,10,2,10,0.00
2013-8-18,99,75,58,53,40,-9,42,30,2,30.83,30.71,18,3,19,0.00
2013-8-19,100,78,59,52,34,-10,48,28,2,30.80,30.68,13,3,13,0.00
2013-8-20,103,80,63,50,29,-11,37,23,2,30.74,30.65,15,3,15,0.00
2013-8-21,98,78,66,52,45,37,52,32,19,30.83,30.71,22,3,22,0.00
2013-8-22,88,72,58,62,53,49,83,54,35,30.86,30.74,12,3,13,0.00
2013-8-23,91,73,59,59,52,45,87,52,31,30.83,30.62,17,-1,17,0.00
2013-8-24,94,74,59,55,48,42,65,42,27,30.80,30.68,20,-1,20,0.00
2013-8-25,96,76,60,54,48,42,57,38,19,30.83,30.74,15,2,15,0.00
2013-8-26,98,76,62,58,52,48,64,45,26,30.83,30.74,17,3,17,0.00
2013-8-27,99,79,61,57,52,47,67,43,26,30.83,30.71,14,3,14,0.00
2013-8-28,102,79,62,56,47,37,53,34,18,30.80,30.74,12,-2,13,0.00
2013-8-29,102,81,65,53,40,-4,40,28,2,30.86,30.74,19,3,19,0.00
2013-8-30,100,78,63,55,46,40,47,34,18,30.86,30.77,17,3,17,0.00
2013-8-31,98,76,63,54,47,42,58,37,19,30.80,30.74,17,4,22,0.00
2013-9-1,84,70,59,59,53,46,82,56,42,30.86,30.74,13,-1,15,0.00
2013-9-2,96,74,56,60,52,41,91,52,23,30.80,30.68,14,2,14,0.00
2013-9-3,103,78,62,63,51,42,83,42,18,30.83,30.71,20,4,20,0.04
2013-9-4,99,76,62,59,52,47,69,46,23,30.86,30.77,15,1,15,0.08
2013-9-5,98,77,61,58,52,46,73,44,26,30.86,30.77,11,2,13,0.00
2013-9-6,105,80,67,56,47,35,47,32,10,30.86,30.74,16,3,16,0.00
2013-9-7,100,79,61,54,46,39,52,33,16,30.80,30.68,11,2,11,0.00
2013-9-8,94,75,60,51,44,39,50,34,20,30.74,30.56,9,-10,9,0.00
2013-9-9,89,68,58,63,53,45,98,64,31,30.74,30.62,21,-499,21,0.49
2013-9-10,68,60,57,59,57,55,98,90,68,30.83,30.68,10,-314,10,0.82
2013-9-11,63,60,58,61,59,57,98,97,92,30.86,30.80,11,-66,13,1.03
2013-9-12,62,59,58,62,59,57,98,98,98,30.92,30.80,13,5,17,3.11
2013-9-13,78,63,57,63,58,55,98,86,50,30.83,30.59,9,-6,11,1.37
2013-9-14,79,64,53,60,55,48,98,76,39,30.71,30.56,13,-1,13,0.00
2013-9-15,60,56,52,56,54,51,98,94,82,30.89,30.68,17,3,17,1.36
2013-9-16,74,60,51,59,54,51,98,83,53,30.86,30.71,11,-2,11,0.42
2013-9-17,85,68,52,57,49,43,97,55,29,30.74,30.53,15,-5,15,0.00
2013-9-18,87,69,58,51,43,38,58,41,29,30.59,30.50,25,-13,25,0.00
2013-9-19,69,58,48,48,43,38,92,60,40,30.83,30.59,11,2,11,0.04
2013-9-20,75,58,44,48,43,40,95,62,33,30.80,30.68,11,-2,11,0.00
2013-9-21,85,64,47,50,44,38,78,51,26,30.71,30.50,10,-10,11,0.00
2013-9-22,81,64,54,51,44,37,83,51,32,30.53,30.32,15,-9,15,0.00
2013-9-23,70,58,50,51,38,27,98,51,27,30.71,30.27,24,-175,25,0.29
2013-9-24,78,61,44,44,36,26,67,42,26,30.74,30.56,10,-431,13,0.00
2013-9-25,85,62,45,50,40,32,68,47,20,30.53,30.27,11,-205,11,0.00
2013-9-26,71,56,45,46,42,38,87,62,39,30.50,30.32,0,-999,0,0.00
2013-9-27,54,46,39,52,45,39,98,96,79,30.65,30.41,0,-999,0,0.29
2013-9-28,71,52,36,42,32,22,98,49,27,30.77,30.62,0,-999,0,0.04
2013-9-29,78,60,42,43,24,-14,59,33,3,30.74,30.56,13,-587,13,0.00
2013-9-30,86,66,54,51,33,-5,44,31,6,30.62,30.50,12,-59,13,0.00
2013-10-1,74,61,50,47,37,26,70,43,25,30.74,30.56,12,-105,12,0.00
2013-10-2,78,60,47,45,39,31,75,47,24,30.65,30.56,11,-104,11,0.00
2013-10-3,68,51,39,49,40,34,98,70,43,30.62,30.44,13,3,17,0.17
2013-10-4,50,38,29,44,31,18,98,76,43,30.77,30.44,23,6,23,0.42
2013-10-5,66,46,29,28,10,-12,85,38,4,30.80,30.68,18,-1,20,0.00
2013-10-6,71,53,37,38,24,-12,58,34,8,30.86,30.74,11,3,11,0.00
2013-10-7,78,58,39,42,33,24,57,41,21,30.80,30.56,9,2,9,0.00
2013-10-8,81,62,49,44,29,-18,50,33,2,30.59,30.44,11,-18,11,0.00
2013-10-9,69,54,46,43,36,27,79,52,38,30.65,30.50,11,-1,12,0.00
2013-10-10,64,49,41,49,42,30,97,77,49,30.62,30.24,23,2,26,0.00
2013-10-11,62,52,40,38,31,27,78,46,35,30.68,30.21,23,1,23,0.00
2013-10-12,61,46,38,41,37,34,89,73,45,30.77,30.68,9,-1,9,0.00
2013-10-13,67,49,34,44,39,33,97,72,43,30.74,30.53,10,2,10,0.00
2013-10-14,56,46,39,44,36,31,90,69,46,30.74,30.44,13,-5,13,0.00
2013-10-15,50,38,32,33,27,23,86,65,45,30.86,30.74,13,4,13,0.00
2013-10-16,58,40,25,37,27,22,98,62,37,30.77,30.62,10,2,10,0.00
2013-10-17,51,40,33,32,27,21,88,60,48,30.74,30.62,13,-1,13,0.00
2013-10-18,56,38,28,37,28,23,98,72,42,30.77,30.68,13,3,13,0.16
2013-10-19,69,52,30,35,21,-12,85,34,4,30.71,30.56,19,5,19,0.00
2013-10-20,54,41,32,37,29,17,98,69,23,30.71,30.50,13,3,15,0.17
2013-10-21,64,46,29,35,29,23,94,56,29,30.77,30.68,14,3,14,0.00
2013-10-22,67,50,35,37,30,22,65,45,33,30.80,30.71,13,-1,13,0.00
2013-10-23,68,51,38,38,30,23,66,46,33,30.80,30.68,12,3,12,0.00
2013-10-24,62,44,34,41,35,30,98,73,45,30.83,30.74,9,3,9,0.00
2013-10-25,74,51,34,42,32,25,90,55,22,30.83,30.71,13,-9,13,0.00
2013-10-26,65,49,36,38,30,23,67,49,35,30.92,30.74,12,-1,12,0.00
2013-10-27,74,57,38,34,14,-20,65,28,2,30.74,30.50,12,3,15,0.00
2013-10-28,52,36,30,34,30,24,98,82,36,30.65,30.50,17,0,17,0.04
2013-10-29,36,33,30,34,32,30,98,96,84,30.62,30.50,8,2,10,0.08
2013-10-30,54,37,29,39,31,18,98,81,43,30.53,30.44,20,-6,20,0.25
2013-10-31,55,44,33,26,20,16,54,37,26,30.56,30.44,34,0,34,0.00
2013-11-1,60,43,31,34,24,-6,72,49,9,30.80,30.53,17,4,17,0.00
2013-11-2,68,43,27,38,22,-11,70,47,7,30.77,30.41,9,2,9,0.00
2013-11-3,70,50,35,33,17,-12,75,35,4,30.47,30.27,22,4,22,0.00
2013-11-4,43,34,29,31,20,14,98,59,40,30.62,30.44,19,-2,19,0.00
2013-11-5,50,34,22,25,9,-16,72,42,8,30.74,30.50,25,5,25,0.00
2013-11-6,53,40,24,21,13,-4,43,33,11,30.89,30.65,30,7,30,0.00
2013-11-7,62,42,27,32,22,13,62,44,29,30.92,30.62,13,3,13,0.00
2013-11-8,68,51,37,26,13,-12,50,27,4,30.65,30.44,23,4,26,0.00
2013-11-9,54,42,35,30,22,13,70,48,20,30.74,30.65,12,4,13,0.00
2013-11-10,43,42,41,27,26,24,55,52,47,31.48,31.45,0,-999,0,0.00
2013-11-11,63,44,34,37,27,21,72,53,35,31.77,31.45,0,-999,0,0.00